Butte, MT

11:35 AM MST on December 06, 2016 (GMT -0700)
Mooney

Weather History for KBTM - March, 2014

Change the Weather History Date:

Saturday, March 22, 2014

  Actual Average Record
Temperature  
Mean Temperature 23 °F 34 °F  
Max Temperature 34 °F 45 °F 64 °F (1972)
Min Temperature 11 °F 22 °F -19 °F (1898)
Degree Days  
Heating Degree Days 42 31  
Month to date heating degree days 784 770  
Since 1 July heating degree days 7162 7339  
Cooling Degree Days 0 0  
Month to date cooling degree days 0 0  
Year to date cooling degree days 0 0  
Moisture  
Dew Point 11 °F    
Average Humidity 60    
Maximum Humidity 84    
Minimum Humidity 36    
Precipitation  
Precipitation T in 0.03 in 0.50 in (1920)
Month to date precipitation 0.76 0.50  
Year to date precipitation 1.62 1.40  
Sea Level Pressure  
Sea Level Pressure 30.29 in    
Wind  
Wind Speed 4 mph (North)    
Max Wind Speed 10 mph    
Max Gust Speed 12 mph    
Visibility 9 miles    
Events Snow    
T = Trace of Precipitation, MM = Missing Value Source: NWS Daily Summary

Daily Weather History Graph

Daily Weather History Graph

Search for Another Location

Airport or City:

Trip Planner

Search our weather history database for the weather conditions in past years. The results will help you decide how hot, cold, wet, or windy it might be!

Date:

Astronomy

Mar. 22, 2014 Rise Set
Actual Time 7:29 AM MDT 7:45 PM MDT
Civil Twilight 6:59 AM MDT 8:15 PM MDT
Nautical Twilight 6:24 AM MDT 8:50 PM MDT
Astronomical Twilight 5:48 AM MDT 9:26 PM MDT
Moon 1:23 AM MDT (3/22) 11:00 AM MDT (3/22)
Length of Visible Light 13h 16m
Length of Day
12h 16m
Waning Gibbous, 65% of the Moon is Illuminated
Mar 22
Waning Gibbous
Mar 23
Last Quarter
Mar 30
New
Apr 7
First Quarter
Apr 15
Full

Hourly Weather History & Observations

Time (MDT) Temp. Windchill Dew Point Humidity Pressure Visibility Wind Dir Wind Speed Gust Speed Precip Events Conditions
12:53 AM 21.0 °F 13.4 °F 12.0 °F 68% 30.27 in 10.0 mi SSE 5.8 mph - N/A   Overcast
1:53 AM 18.0 °F 11.1 °F 12.9 °F 81% 30.28 in 10.0 mi North 4.6 mph - N/A   Overcast
2:53 AM 17.1 °F 7.6 °F 12.0 °F 81% 30.29 in 9.0 mi NW 6.9 mph - N/A   Overcast
3:29 AM 16.0 °F 3.6 °F 12.0 °F 84% 30.14 in 7.0 mi NNW 10.4 mph - N/A   Overcast
3:53 AM 15.1 °F 5.2 °F 10.9 °F 84% 30.30 in 3.0 mi NNW 6.9 mph - 0.00 in Snow Light Snow
4:25 AM 14.0 °F 5.1 °F 10.9 °F 88% 30.15 in 6.0 mi NW 5.8 mph - 0.00 in   Overcast
4:53 AM 14.0 °F 5.1 °F 10.9 °F 88% 30.32 in 5.0 mi NW 5.8 mph - 0.00 in Snow Light Snow
5:53 AM 14.0 °F 6.5 °F 10.0 °F 84% 30.33 in 8.0 mi NW 4.6 mph - 0.00 in   Overcast
6:53 AM 14.0 °F 6.5 °F 7.0 °F 74% 30.37 in 9.0 mi NE 4.6 mph - N/A   Overcast
7:53 AM 14.0 °F 6.5 °F 7.0 °F 74% 30.39 in 9.0 mi NE 4.6 mph - 0.00 in   Overcast
8:53 AM 12.0 °F 4.1 °F 8.1 °F 84% 30.41 in 6.0 mi SSE 4.6 mph - N/A   Overcast
9:37 AM 16.0 °F - 8.1 °F 71% 30.22 in 10.0 mi Calm Calm - N/A   Scattered Clouds
9:53 AM 16.0 °F - 9.0 °F 74% 30.40 in 10.0 mi Calm Calm - N/A   Clear
10:53 AM 19.0 °F 13.9 °F 9.0 °F 65% 30.40 in 10.0 mi Variable 3.5 mph - N/A   Clear
11:53 AM 23.0 °F - 10.9 °F 60% 30.39 in 10.0 mi Calm Calm - N/A   Clear
12:53 PM 26.1 °F - 10.9 °F 53% 30.35 in 10.0 mi Calm Calm - N/A   Clear
1:53 PM 27.0 °F 23.0 °F 10.0 °F 49% 30.35 in 10.0 mi WSW 3.5 mph - N/A   Clear
2:53 PM 30.0 °F 25.2 °F 7.0 °F 38% 30.31 in 10.0 mi Variable 4.6 mph - N/A   Clear
3:53 PM 32.0 °F 27.5 °F 9.0 °F 38% 30.30 in 10.0 mi Variable 4.6 mph - N/A   Clear
4:53 PM 32.0 °F 27.5 °F 10.0 °F 40% 30.29 in 10.0 mi SSE 4.6 mph - N/A   Clear
5:53 PM 33.1 °F 28.7 °F 10.0 °F 38% 30.27 in 10.0 mi NW 4.6 mph - N/A   Clear
6:53 PM 32.0 °F 24.8 °F 12.9 °F 45% 30.26 in 10.0 mi SSE 8.1 mph - N/A   Clear
7:53 PM 30.0 °F 23.2 °F 15.1 °F 54% 30.25 in 10.0 mi SE 6.9 mph - N/A   Clear
8:53 PM 28.9 °F 21.1 °F 15.1 °F 56% 30.26 in 10.0 mi South 8.1 mph - N/A   Overcast
9:53 PM 27.0 °F - 15.1 °F 61% 30.25 in 10.0 mi Calm Calm - N/A   Overcast
10:53 PM 27.0 °F 23.0 °F 14.0 °F 58% 30.22 in 10.0 mi East 3.5 mph - N/A   Overcast
11:53 PM 26.1 °F 19.4 °F 17.1 °F 69% 30.19 in 10.0 mi South 5.8 mph - N/A   Overcast